EN

Hourly Weather La Goulette

Today, 5 August, Thursday

Time Temperature Precipitation Wind Pressure Humidity
00:00 +28°C° 0 mm 3 mps 745 mmHg 65%
01:00 +27°C° 0 mm 3 mps 745 mmHg 67%
02:00 +27°C° 0 mm 3 mps 745 mmHg 68%
03:00 +26°C° 0 mm 3 mps 745 mmHg 69%
04:00 +26°C° 0 mm 3 mps 745 mmHg 71%
05:00 +26°C° 0 mm 3 mps 745 mmHg 68%
06:00 +27°C° 0 mm 3 mps 745 mmHg 65%
07:00 +27°C° 0 mm 2 mps 745 mmHg 62%
08:00 +29°C° 0 mm 3 mps 745 mmHg 53%
09:00 +31°C° 0 mm 3 mps 745 mmHg 45%
10:00 +34°C° 0 mm 3 mps 745 mmHg 36%
11:00 +35°C° 0 mm 3 mps 745 mmHg 33%
12:00 +36°C° 0 mm 3 mps 745 mmHg 30%
13:00 +38°C° 0 mm 3 mps 745 mmHg 27%
14:00 +37°C° 0 mm 4 mps 744 mmHg 29%
15:00 +37°C° 0 mm 5 mps 744 mmHg 30%
16:00 +38°C° 0 mm 6 mps 743 mmHg 31%
17:00 +35°C° 0 mm 5 mps 743 mmHg 35%
18:00 +33°C° 0 mm 5 mps 743 mmHg 38%
19:00 +32°C° 0 mm 4 mps 743 mmHg 42%
20:00 +30°C° 0 mm 3 mps 744 mmHg 46%
21:00 +29°C° 0 mm 2 mps 744 mmHg 50%
22:00 +28°C° 0 mm 1 mps 744 mmHg 54%
23:00 +27°C° 0 mm 1 mps 744 mmHg 55%

Tomorrow, 6 August, Friday

Time Temperature Precipitation Wind Pressure Humidity
00:00 +27°C° 0 mm 1 mps 744 mmHg 55%
01:00 +25°C° 0 mm 0 mps 744 mmHg 55%
02:00 +25°C° 0 mm 0 mps 743 mmHg 55%
03:00 +24°C° 0 mm 0 mps 743 mmHg 55%
04:00 +24°C° 0 mm 0 mps 743 mmHg 54%
05:00 +25°C° 0 mm 0 mps 743 mmHg 51%
06:00 +25°C° 0 mm 0 mps 743 mmHg 49%
07:00 +26°C° 0 mm 0 mps 743 mmHg 46%
08:00 +28°C° 0 mm 0 mps 743 mmHg 40%
09:00 +32°C° 0 mm 1 mps 743 mmHg 33%
10:00 +34°C° 0 mm 1 mps 744 mmHg 27%
11:00 +36°C° 0 mm 1 mps 743 mmHg 25%
12:00 +38°C° 0 mm 2 mps 743 mmHg 24%
13:00 +39°C° 0 mm 3 mps 743 mmHg 22%
14:00 +39°C° 0 mm 3 mps 742 mmHg 23%
15:00 +40°C° 0 mm 4 mps 742 mmHg 24%
16:00 +40°C° 0 mm 5 mps 742 mmHg 25%
17:00 +37°C° 0 mm 4 mps 742 mmHg 30%
18:00 +35°C° 0 mm 4 mps 742 mmHg 35%
19:00 +33°C° 0 mm 3 mps 742 mmHg 39%
20:00 +31°C° 0 mm 3 mps 742 mmHg 44%
21:00 +30°C° 0 mm 2 mps 742 mmHg 49%
22:00 +29°C° 0 mm 2 mps 743 mmHg 54%
23:00 +28°C° 0 mm 2 mps 742 mmHg 55%

Day after tomorrow, 7 August, Saturday

Time Temperature Precipitation Wind Pressure Humidity
00:00 +28°C° 0 mm 2 mps 742 mmHg 55%
01:00 +28°C° 0 mm 2 mps 742 mmHg 55%
02:00 +28°C° 0 mm 2 mps 742 mmHg 55%
03:00 +27°C° 0 mm 2 mps 741 mmHg 55%
04:00 +27°C° 0 mm 2 mps 741 mmHg 55%
05:00 +28°C° 0 mm 2 mps 741 mmHg 53%
06:00 +29°C° 0 mm 2 mps 741 mmHg 50%
07:00 +29°C° 0 mm 3 mps 741 mmHg 47%
08:00 +33°C° 0 mm 4 mps 741 mmHg 40%
09:00 +35°C° 0 mm 5 mps 741 mmHg 33%
10:00 +39°C° 0 mm 7 mps 741 mmHg 26%
11:00 +40°C° 0 mm 7 mps 741 mmHg 24%
12:00 +43°C° 0 mm 7 mps 741 mmHg 21%
13:00 +45°C° 0 mm 8 mps 741 mmHg 19%
14:00 +44°C° 0 mm 8 mps 740 mmHg 21%
15:00 +44°C° 0 mm 8 mps 740 mmHg 22%
16:00 +43°C° 0 mm 8 mps 740 mmHg 24%
17:00 +40°C° 0 mm 8 mps 740 mmHg 29%
18:00 +38°C° 0 mm 8 mps 739 mmHg 33%
19:00 +36°C° 0 mm 7 mps 739 mmHg 38%
20:00 +34°C° 0 mm 6 mps 740 mmHg 42%
21:00 +33°C° 0 mm 5 mps 741 mmHg 46%
22:00 +32°C° 0 mm 4 mps 741 mmHg 50%
23:00 +30°C° 0 mm 4 mps 741 mmHg 53%

8 August, Sunday

Time Temperature Precipitation Wind Pressure Humidity
00:00 +30°C° 0 mm 3 mps 742 mmHg 55%
01:00 +29°C° 0 mm 2 mps 742 mmHg 58%
02:00 +29°C° 0 mm 2 mps 742 mmHg 59%
03:00 +28°C° 0 mm 1 mps 742 mmHg 60%
04:00 +28°C° 0 mm 1 mps 742 mmHg 61%
05:00 +28°C° 0 mm 1 mps 742 mmHg 59%
06:00 +29°C° 0 mm 1 mps 742 mmHg 57%
07:00 +30°C° 0 mm 1 mps 743 mmHg 55%
08:00 +32°C° 0 mm 2 mps 743 mmHg 47%
09:00 +36°C° 0 mm 3 mps 743 mmHg 39%
10:00 +38°C° 0 mm 3 mps 743 mmHg 31%
11:00 +41°C° 0 mm 4 mps 743 mmHg 28%
12:00 +43°C° 0 mm 4 mps 743 mmHg 25%
13:00 +44°C° 0 mm 4 mps 743 mmHg 21%
14:00 +43°C° 0 mm 5 mps 743 mmHg 26%
15:00 +42°C° 0 mm 5 mps 743 mmHg 30%
16:00 +41°C° 0 mm 6 mps 743 mmHg 34%
17:00 +39°C° 0 mm 5 mps 743 mmHg 39%
18:00 +36°C° 0 mm 4 mps 744 mmHg 44%
19:00 +35°C° 0 mm 3 mps 744 mmHg 50%
20:00 +34°C° 0 mm 3 mps 745 mmHg 55%
21:00 +33°C° 0 mm 3 mps 745 mmHg 61%
22:00 +31°C° 0 mm 3 mps 745 mmHg 66%
23:00 +30°C° 0 mm 2 mps 745 mmHg 69%

9 August, Monday

Time Temperature Precipitation Wind Pressure Humidity
00:00 +29°C° 0 mm 2 mps 746 mmHg 72%
01:00 +29°C° 0 mm 1 mps 746 mmHg 75%
02:00 +29°C° 0 mm 2 mps 745 mmHg 74%
03:00 +28°C° 0 mm 2 mps 745 mmHg 73%
04:00 +28°C° 0 mm 2 mps 745 mmHg 72%
05:00 +29°C° 0 mm 2 mps 745 mmHg 66%
06:00 +29°C° 0 mm 2 mps 745 mmHg 61%
07:00 +30°C° 0 mm 2 mps 746 mmHg 56%
08:00 +34°C° 0 mm 2 mps 746 mmHg 44%
09:00 +37°C° 0 mm 3 mps 746 mmHg 33%
10:00 +40°C° 0 mm 3 mps 746 mmHg 21%
11:00 +43°C° 0 mm 4 mps 746 mmHg 19%
12:00 +45°C° 0 mm 4 mps 746 mmHg 16%
13:00 +47°C° 0 mm 5 mps 746 mmHg 13%
14:00 +46°C° 0 mm 5 mps 746 mmHg 17%
15:00 +45°C° 0 mm 5 mps 746 mmHg 20%
16:00 +43°C° 0 mm 5 mps 746 mmHg 23%
17:00 +41°C° 0 mm 5 mps 746 mmHg 29%
18:00 +37°C° 0 mm 4 mps 746 mmHg 35%
19:00 +35°C° 0 mm 3 mps 746 mmHg 40%
20:00 +34°C° 0 mm 2 mps 746 mmHg 45%
21:00 +32°C° 0 mm 2 mps 747 mmHg 50%
22:00 +31°C° 0 mm 1 mps 748 mmHg 54%
23:00 +30°C° 0 mm 1 mps 747 mmHg 55%

10 August, Tuesday

Time Temperature Precipitation Wind Pressure Humidity
00:00 +30°C° 0 mm 1 mps 747 mmHg 55%
01:00 +30°C° 0 mm 1 mps 747 mmHg 56%
02:00 +30°C° 0 mm 2 mps 747 mmHg 52%
03:00 +30°C° 0 mm 2 mps 746 mmHg 49%
04:00 +30°C° 0 mm 2 mps 746 mmHg 46%
05:00 +30°C° 0 mm 2 mps 746 mmHg 43%
06:00 +31°C° 0 mm 2 mps 746 mmHg 41%
07:00 +31°C° 0 mm 2 mps 746 mmHg 38%
08:00 +34°C° 0 mm 2 mps 747 mmHg 36%
09:00 +36°C° 0 mm 3 mps 747 mmHg 34%
10:00 +38°C° 0 mm 3 mps 747 mmHg 33%
11:00 +40°C° 0 mm 3 mps 747 mmHg 27%
12:00 +43°C° 0 mm 3 mps 746 mmHg 21%
13:00 +45°C° 0 mm 3 mps 746 mmHg 16%
14:00 +45°C° 0 mm 4 mps 746 mmHg 18%
15:00 +45°C° 0 mm 5 mps 745 mmHg 21%
16:00 +44°C° 0 mm 6 mps 745 mmHg 23%
17:00 +40°C° 0 mm 5 mps 745 mmHg 32%
18:00 +36°C° 0 mm 4 mps 745 mmHg 40%
19:00 +34°C° 0 mm 3 mps 746 mmHg 48%
20:00 +31°C° 0 mm 3 mps 746 mmHg 53%
21:00 +30°C° 0 mm 2 mps 746 mmHg 58%
22:00 +29°C° 0 mm 2 mps 746 mmHg 62%
23:00 +29°C° 0 mm 2 mps 746 mmHg 60%
Show more